Date,TemperatureHighF,TemperatureAvgF,TemperatureLowF,DewpointHighF,DewpointAvgF,DewpointLowF,HumidityHigh,HumidityAvg,HumidityLow,PressureMaxIn,PressureMinIn,WindSpeedMaxMPH,WindSpeedAvgMPH,GustSpeedMaxMPH,PrecipitationSumIn
2013-11-1,74,61,54,64,54,50,94,79,71,29.38,29.26,10,1,12,0.00
2013-11-2,62,54,47,55,49,41,100,84,75,29.65,29.35,8,1,9,0.00
2013-11-3,64,50,42,56,44,38,90,81,75,29.74,29.59,5,0,5,0.00
2013-11-4,66,56,47,58,49,41,81,77,74,29.71,29.59,7,0,7,0.00
2013-11-5,73,62,56,64,54,49,77,75,73,29.71,29.56,8,2,8,0.00
2013-11-6,63,58,46,62,54,42,100,88,75,29.71,29.47,6,1,8,0.28
2013-11-7,59,48,42,51,42,37,85,80,77,29.83,29.68,0,0,0,0.00
2013-11-8,66,50,38,57,44,35,89,80,74,29.80,29.62,0,0,0,0.00
2013-11-9,64,53,45,56,46,40,81,78,75,29.71,29.62,8,0,8,0.00
2013-11-10,70,55,47,61,49,42,86,78,73,29.77,29.68,0,0,0,0.00
2013-11-11,73,56,43,63,48,38,82,77,73,29.74,29.56,6,0,8,0.00
2013-11-12,56,42,33,49,37,29,83,81,77,30.06,29.62,10,2,14,0.00
2013-11-13,52,38,29,45,33,25,85,82,78,30.09,29.83,5,0,5,0.00
2013-11-14,62,44,30,54,38,26,85,81,75,29.85,29.59,8,0,8,0.00
2013-11-15,61,51,44,55,47,39,99,85,75,29.59,29.44,3,0,5,0.08
2013-11-16,68,62,54,62,57,52,100,86,75,29.47,29.32,6,0,6,0.00
2013-11-17,75,69,60,72,64,52,100,86,73,29.50,29.18,10,1,12,0.79
2013-11-18,67,56,47,58,48,40,79,77,74,29.71,29.47,6,1,9,0.00
2013-11-19,54,47,39,47,41,34,82,80,78,29.74,29.62,7,0,8,0.00
2013-11-20,68,50,36,59,44,32,83,79,74,29.62,29.50,5,0,5,0.00
2013-11-21,68,59,52,61,54,46,100,83,74,29.65,29.56,6,1,6,0.43
2013-11-22,60,54,45,60,52,39,100,92,79,29.83,29.56,8,0,10,0.55
2013-11-23,48,42,31,42,36,26,89,82,79,29.97,29.77,10,2,11,0.00
2013-11-24,39,31,24,34,27,20,86,84,82,30.06,29.83,10,2,10,0.00
2013-11-25,37,35,33,36,33,29,100,90,83,29.83,29.53,6,0,6,0.16
2013-11-26,41,37,34,39,35,30,100,92,82,29.56,29.38,10,1,10,0.04
2013-11-27,37,30,25,32,26,21,86,84,83,29.80,29.56,10,2,13,0.00
2013-11-28,50,34,23,43,29,20,86,83,79,29.88,29.77,8,1,8,0.00
2013-11-29,57,40,29,50,35,25,86,82,77,29.94,29.83,4,0,4,0.00
2013-11-30,58,45,31,51,39,27,86,80,77,29.83,29.62,8,0,8,0.00